User: anonymous   Login
Location: Unspecified
(0.0000°N, 0.0000°E)
Time: 02:55:46
(UTC+00:00)
Language:

GOES 7 - Orbit

View from above orbital plane
View from above orbital plane
View from above satellite
View from above satellite

Ground track
Ground track

The orbit data is extracted from the following two-line orbital elements,

1 17561U 87022A   18171.13404716 +.00000095 +00000-0 +00000-0 0  9997
2 17561 015.1063 002.0126 0005804 330.2147 028.8438 00.99894750097792
Epoch (UTC): 20 June 2018 03:13:01
Eccentricity: 0.0005804
inclination: 15.1063°
perigee height: 35868 km
apogee height: 35917 km
right ascension of ascending node: 2.0126°
argument of perigee: 330.2147°
revolutions per day: 0.99894750
mean anomaly at epoch: 28.8438°
orbit number at epoch: 9779

The dashed part of the orbit path shows where the satellite is in the earth's shadow,  

DLR